Vorticity
nan nan nan nan nan nan nan nan nan nan nan nan nan nan nan nan nan nan nan nan nan nan nan nan nan nan nan nan nan nan nan nan nan nan nan nan nan nan nan nan nan nan nan nan
nan 8 6 8 9 10 12 10 9 8 5 15 18 15 18 10 9 8 6 8 8 9 12 12 11 13 11 12 12 15 13 17 19 16 13 12 12 10 9 9 10 10 9 nan
nan 5 11 14 6 12 11 12 13 9 15 16 7 6 8 10 9 8 8 9 6 9 10 10 10 12 11 12 10 11 10 9 13 14 13 15 16 16 16 15 15 14 14 nan
nan 12 10 8 9 10 6 6 9 20 23 10 6 2 4 8 8 9 8 8 11 9 9 10 12 12 10 10 13 9 9 9 11 11 11 10 13 14 14 14 16 16 16 nan
nan 13 14 4 0 4 10 2 1 20 20 9 3 -5 -0 8 10 9 11 10 11 13 10 9 11 11 14 11 8 10 9 10 10 12 12 10 10 11 14 14 12 12 13 nan
nan 10 7 -1 3 9 15 2 -3 14 15 15 15 10 2 6 10 10 9 10 11 12 13 11 9 12 12 11 9 7 10 12 10 11 9 12 11 12 13 12 11 9 9 nan
nan 11 4 -3 10 24 17 5 8 13 13 21 18 14 10 7 8 11 10 9 10 9 9 10 13 11 8 9 12 11 11 9 11 12 10 9 13 12 12 11 10 10 8 nan
nan 12 -0 7 22 18 16 11 12 12 13 13 11 10 9 9 8 9 10 9 11 10 8 9 12 12 10 9 9 11 11 9 10 12 13 11 10 12 11 11 9 10 9 nan
nan 15 10 13 15 12 16 11 10 12 11 9 9 8 9 9 9 8 9 10 10 10 9 9 10 11 9 9 13 12 9 11 11 11 11 11 11 12 10 10 10 10 10 nan
nan 6 9 13 10 10 10 10 10 11 12 11 10 9 9 9 9 9 9 10 11 10 9 9 10 11 10 12 12 11 11 10 8 8 11 13 12 10 13 12 11 11 11 nan
nan 9 6 4 10 10 9 10 11 9 10 12 10 10 10 9 10 10 10 10 11 10 9 9 10 10 10 13 14 12 10 9 9 8 8 7 8 13 16 14 19 18 14 nan
nan 11 14 8 9 9 9 9 10 10 10 10 12 11 11 10 10 10 10 11 10 10 9 10 10 10 10 13 15 14 11 10 10 10 9 9 7 1 4 13 17 17 20 nan
nan 13 11 8 7 9 9 9 10 11 11 10 11 12 12 10 10 11 9 9 10 11 11 11 10 9 10 12 13 14 14 14 13 11 12 11 10 9 1 -3 -2 7 14 nan
nan 16 4 7 10 10 9 9 9 8 10 11 12 12 11 11 10 9 10 9 10 10 10 10 9 9 11 12 14 14 11 12 13 12 12 11 11 11 11 9 4 -1 1 nan
nan 12 13 11 9 11 11 11 10 9 10 10 10 11 12 11 10 9 10 12 11 8 9 10 9 8 12 12 11 12 14 13 13 11 11 12 11 11 11 11 10 10 7 nan
nan 8 7 7 9 10 12 13 11 9 10 11 10 10 11 10 10 8 8 10 11 9 9 10 8 9 11 13 13 12 10 10 13 12 11 10 11 11 11 10 10 10 9 nan
nan 9 9 8 9 11 12 12 12 11 11 11 10 12 12 10 8 8 9 10 9 9 9 9 9 10 12 14 14 13 11 9 10 12 11 11 11 11 11 11 10 10 9 nan
nan 14 13 14 13 11 11 11 11 11 11 10 11 12 10 10 10 9 9 11 10 8 8 10 11 12 12 12 13 14 12 11 11 11 11 11 11 11 11 11 11 11 10 nan
nan 11 11 13 13 12 11 10 10 11 10 10 10 10 10 9 9 10 11 13 11 6 6 10 11 14 11 13 15 14 12 12 12 12 12 11 10 11 12 12 11 11 11 nan
nan 11 12 12 12 11 10 10 9 8 10 11 10 9 9 10 11 9 9 9 11 9 7 11 15 11 11 10 15 15 12 13 12 10 11 12 12 12 10 10 12 11 11 nan
nan 11 11 10 9 10 11 11 10 8 9 11 11 9 8 10 10 14 13 6 7 11 13 11 13 13 11 11 15 13 13 13 11 11 12 12 11 10 10 10 11 11 11 nan
nan 10 10 9 9 9 10 11 11 11 11 11 11 12 10 9 10 10 8 11 9 11 14 11 8 12 13 15 14 12 12 12 12 12 12 11 12 11 11 11 11 11 10 nan
nan 10 9 10 9 9 10 11 11 12 11 9 9 9 9 10 12 12 11 12 11 13 13 9 8 11 14 15 12 11 11 12 12 12 12 11 12 12 11 11 11 10 10 nan
nan 10 10 11 11 9 9 10 9 9 9 10 9 8 10 15 12 13 14 9 8 8 11 11 9 10 14 13 11 11 11 11 11 12 11 11 12 11 11 11 10 10 11 nan
nan 9 9 8 8 9 10 10 9 8 7 7 10 11 12 11 11 11 11 11 7 10 11 9 8 10 12 11 11 11 11 10 11 12 10 11 11 11 11 10 10 10 11 nan
nan 8 9 7 8 12 13 10 9 11 11 9 9 10 11 10 13 10 10 9 10 12 10 9 9 11 11 10 10 10 11 11 11 10 11 11 10 10 10 10 12 11 11 nan
nan nan nan nan nan nan nan nan nan nan nan nan nan nan nan nan nan nan nan nan nan nan nan nan nan nan nan nan nan nan nan nan nan nan nan nan nan nan nan nan nan nan nan nan
CAPE
0 0 0 0 0 0 0 0 0 0 3 6 21 29 23 13 5 6 6 0 1 17 11 4 3 1 0 4 7 10 14 11 7 4 4 5 4 7 10 10 7 7 10 18
0 0 0 0 0 0 0 0 14 5 29 32 0 2 9 9 5 9 2 7 1 12 9 7 6 6 1 1 2 1 2 1 2 9 4 4 11 3 4 5 7 7 5 17
0 0 0 0 0 0 0 10 40 12 35 1 3 4 9 11 9 9 10 3 3 2 10 10 8 7 4 2 2 3 3 2 0 0 1 2 2 1 11 11 19 4 8 12
0 0 0 0 1 0 0 26 35 35 1 0 2 6 4 11 15 10 8 6 1 1 2 7 5 4 5 2 4 1 2 2 0 0 0 0 0 1 2 2 1 0 0 1
0 0 0 33 4 1 1 21 7 12 8 4 3 0 9 11 7 11 11 13 5 3 1 3 5 4 1 1 2 0 1 3 3 2 1 1 2 3 3 2 1 2 2 1
0 0 0 5 1 0 1 27 12 3 4 13 2 23 11 19 6 6 10 4 1 1 0 0 4 2 1 0 0 1 2 2 1 2 3 3 4 5 5 2 2 3 2 3
1 3 11 7 1 0 14 12 11 8 5 0 2 14 19 9 6 6 9 2 2 1 0 1 1 1 2 1 1 1 1 1 1 1 1 2 4 4 3 2 2 3 2 3
11 9 24 11 5 12 15 10 15 10 9 11 11 12 8 7 6 4 6 0 0 0 0 0 1 1 2 5 4 2 0 0 1 2 2 1 2 3 4 2 2 2 3 4
4 17 28 21 16 9 3 6 17 21 19 9 9 8 8 8 6 4 1 1 0 0 0 0 0 2 2 3 2 2 2 1 2 2 2 2 4 5 6 6 7 6 7 9
38 9 18 27 14 11 5 8 7 7 7 4 3 4 6 3 2 0 1 0 0 0 0 0 0 1 2 3 2 1 1 1 2 2 2 4 3 6 7 9 9 9 9 11
28 25 9 7 15 14 9 7 5 3 2 3 2 1 1 1 0 0 0 0 0 0 0 0 1 2 2 2 3 2 3 2 2 1 2 5 7 9 15 17 8 14 12 12
10 13 9 14 15 9 4 5 3 1 0 0 0 0 0 0 0 0 0 0 0 1 2 1 1 2 3 5 4 6 5 5 7 7 7 6 4 6 6 9 5 4 2 11
10 10 7 11 15 9 7 2 0 0 0 0 0 0 0 0 0 0 0 0 0 0 1 2 5 5 7 6 5 6 8 6 8 6 8 7 10 10 9 6 3 6 7 6
8 11 7 3 4 5 2 1 0 0 0 0 0 0 0 0 0 1 0 0 1 1 2 2 4 7 7 8 7 4 8 4 13 14 14 12 12 12 11 12 13 12 6 10
6 4 5 5 0 0 0 0 2 2 2 2 0 0 1 1 1 1 0 0 0 0 2 3 4 7 8 6 6 8 8 12 8 10 12 9 11 12 13 13 14 13 11 6
4 3 3 1 0 0 0 1 1 2 3 3 3 1 0 1 2 2 2 2 1 5 6 4 5 7 9 7 5 7 8 4 5 8 8 13 12 12 12 13 12 11 10 12
0 0 2 2 2 1 1 1 2 2 2 2 3 2 1 1 1 1 3 4 4 5 6 7 6 5 6 7 6 8 8 11 3 9 12 12 13 13 13 13 13 11 11 8
0 0 1 1 1 1 1 1 1 2 3 2 1 0 0 0 3 3 3 1 0 0 3 4 5 5 5 7 7 12 12 12 12 12 12 12 12 12 12 9 9 9 9 3
0 1 1 0 0 1 1 2 2 1 0 0 0 0 0 0 1 1 1 0 0 1 3 2 3 3 5 3 6 12 12 11 10 11 10 7 11 10 10 10 8 7 5 5
0 1 1 1 1 1 2 2 1 1 1 0 0 0 0 0 0 0 0 1 4 8 5 3 3 5 3 0 0 9 12 12 9 11 13 11 13 10 4 0 5 9 12 9
2 1 0 0 0 0 0 0 0 0 0 0 0 0 0 0 0 0 0 4 3 1 2 0 1 1 0 0 2 15 16 15 14 13 12 11 11 9 11 11 11 11 10 9
1 0 0 0 0 0 0 1 0 0 0 0 0 0 0 0 0 0 0 5 7 0 1 4 3 0 0 0 6 12 9 9 12 13 13 13 13 12 12 9 9 9 8 8
1 1 0 0 0 1 1 0 0 0 0 0 0 1 1 5 6 4 4 4 6 2 5 6 0 0 0 11 11 9 8 6 8 9 9 10 10 8 8 8 7 6 6 5
1 1 1 1 0 1 3 1 0 0 0 0 0 0 1 8 8 6 6 0 0 0 3 1 0 0 0 10 9 8 9 8 7 8 5 1 7 5 5 4 4 5 2 0
0 0 0 0 0 2 0 1 0 1 0 1 1 1 0 5 11 9 11 6 0 3 10 0 0 0 10 11 9 7 8 9 8 7 6 5 5 3 4 4 3 4 3 3
1 3 4 2 5 6 5 6 10 7 6 8 7 8 10 8 7 6 8 3 5 1 10 10 8 10 11 8 7 5 7 6 5 5 2 3 3 3 2 2 2 3 3 4
7 1 9 8 6 6 5 5 14 16 7 9 10 9 7 9 6 2 0 10 10 8 10 10 11 4 5 7 7 7 7 8 1 5 6 5 5 5 3 4 3 3 2 2